TimePST,TemperatureF,Dew PointF,Humidity,Sea Level PressureIn,VisibilityMPH,Wind Direction,Wind SpeedMPH,Gust SpeedMPH,PrecipitationIn,Events,Conditions,WindDirDegrees,DateUTC
3:35 AM,17.6,14.0,86,29.98,10.0,Calm,Calm,-,N/A,,Clear,0,2013-12-06 11:35:00
3:55 AM,15.8,12.2,86,29.97,10.0,Calm,Calm,-,N/A,,Clear,0,2013-12-06 11:55:00
4:15 AM,15.8,12.2,86,29.98,10.0,Calm,Calm,-,N/A,,Clear,0,2013-12-06 12:15:00
4:35 AM,15.8,12.2,86,29.98,10.0,Calm,Calm,-,N/A,,Clear,0,2013-12-06 12:35:00
4:55 AM,14.0,10.4,86,29.98,10.0,Calm,Calm,-,N/A,,Clear,0,2013-12-06 12:55:00
5:15 AM,14.0,10.4,86,29.98,10.0,Calm,Calm,-,N/A,,Clear,0,2013-12-06 13:15:00
5:35 AM,14.0,10.4,86,29.99,10.0,Calm,Calm,-,N/A,,Clear,0,2013-12-06 13:35:00
5:55 AM,14.0,10.4,86,29.99,10.0,Calm,Calm,-,N/A,,Clear,0,2013-12-06 13:55:00
6:15 AM,14.0,10.4,86,29.99,10.0,Calm,Calm,-,N/A,,Clear,0,2013-12-06 14:15:00
6:35 AM,12.2,8.6,85,30.00,10.0,Calm,Calm,-,N/A,,Clear,0,2013-12-06 14:35:00
6:55 AM,12.2,8.6,85,30.00,10.0,Calm,Calm,-,N/A,,Clear,0,2013-12-06 14:55:00
7:15 AM,14.0,10.4,86,30.01,10.0,Calm,Calm,-,N/A,,Clear,0,2013-12-06 15:15:00
7:35 AM,15.8,12.2,86,30.02,10.0,Calm,Calm,-,N/A,,Clear,0,2013-12-06 15:35:00
7:55 AM,19.4,14.0,80,30.02,7.0,Calm,Calm,-,N/A,,Clear,0,2013-12-06 15:55:00
8:15 AM,23.0,17.6,80,30.02,10.0,SSW,3.5,-,N/A,,Clear,200,2013-12-06 16:15:00
8:35 AM,26.6,19.4,74,30.03,10.0,WSW,5.8,-,N/A,,Clear,250,2013-12-06 16:35:00
8:55 AM,28.4,14.0,55,30.03,10.0,WSW,5.8,-,N/A,,Clear,240,2013-12-06 16:55:00
9:15 AM,28.4,14.0,55,30.04,10.0,West,6.9,-,N/A,,Clear,260,2013-12-06 17:15:00
9:35 AM,30.2,12.2,47,30.04,10.0,West,5.8,-,N/A,,Clear,260,2013-12-06 17:35:00
9:55 AM,32.0,5.0,32,30.04,10.0,WSW,4.6,-,N/A,,Clear,250,2013-12-06 17:55:00
10:15 AM,32.0,12.2,44,30.04,10.0,West,9.2,-,N/A,,Clear,270,2013-12-06 18:15:00
10:35 AM,33.8,8.6,35,30.03,10.0,West,9.2,-,N/A,,Clear,270,2013-12-06 18:35:00
10:55 AM,33.8,14.0,44,30.03,10.0,West,9.2,-,N/A,,Clear,260,2013-12-06 18:55:00
11:15 AM,33.8,10.4,38,30.02,10.0,West,8.1,-,N/A,,Clear,270,2013-12-06 19:15:00
11:35 AM,33.8,15.8,48,30.02,10.0,West,12.7,-,N/A,,Clear,270,2013-12-06 19:35:00
11:55 AM,33.8,15.8,48,30.00,10.0,SW,5.8,9.2,N/A,,Clear,220,2013-12-06 19:55:00
12:15 PM,33.8,17.6,52,30.01,10.0,SW,8.1,-,N/A,,Clear,230,2013-12-06 20:15:00
12:35 PM,33.8,19.4,56,30.01,10.0,WSW,8.1,-,N/A,,Clear,240,2013-12-06 20:35:00
12:55 PM,32.0,19.4,60,30.00,10.0,West,15.0,-,N/A,,Clear,270,2013-12-06 20:55:00
1:15 PM,32.0,19.4,60,30.00,10.0,West,9.2,-,N/A,,Clear,260,2013-12-06 21:15:00
1:35 PM,32.0,17.6,55,30.00,10.0,WSW,5.8,-,N/A,,Clear,250,2013-12-06 21:35:00
1:55 PM,32.0,17.6,55,29.99,10.0,SSW,5.8,-,N/A,,Clear,200,2013-12-06 21:55:00
2:15 PM,32.0,19.4,60,29.99,10.0,West,12.7,18.4,N/A,,Clear,270,2013-12-06 22:15:00
2:35 PM,32.0,19.4,60,29.99,10.0,West,15.0,18.4,N/A,,Scattered Clouds,280,2013-12-06 22:35:00
3:15 PM,30.2,21.2,69,29.98,10.0,WSW,6.9,-,N/A,,Clear,250,2013-12-06 23:15:00
3:55 PM,26.6,19.4,74,29.99,10.0,West,9.2,-,N/A,,Scattered Clouds,260,2013-12-06 23:55:00
4:15 PM,26.6,19.4,74,30.00,10.0,West,9.2,18.4,N/A,,Scattered Clouds,260,2013-12-07 00:15:00
4:35 PM,26.6,19.4,74,30.00,10.0,West,8.1,-,N/A,,Clear,260,2013-12-07 00:35:00
4:55 PM,26.6,19.4,74,29.99,10.0,SW,8.1,-,N/A,,Scattered Clouds,230,2013-12-07 00:55:00
5:15 PM,26.6,19.4,74,29.99,10.0,West,9.2,-,N/A,,Scattered Clouds,260,2013-12-07 01:15:00
5:35 PM,26.6,19.4,74,30.00,10.0,West,9.2,-,N/A,,Scattered Clouds,260,2013-12-07 01:35:00
5:55 PM,26.6,19.4,74,30.00,10.0,WSW,10.4,19.6,N/A,,Mostly Cloudy,240,2013-12-07 01:55:00
6:15 PM,26.6,21.2,80,30.00,10.0,WSW,8.1,-,N/A,,Overcast,250,2013-12-07 02:15:00
6:35 PM,26.6,21.2,80,30.00,10.0,West,9.2,-,N/A,,Mostly Cloudy,260,2013-12-07 02:35:00
6:55 PM,26.6,21.2,80,30.00,10.0,WSW,8.1,-,N/A,,Overcast,250,2013-12-07 02:55:00
7:15 PM,26.6,21.2,80,30.00,10.0,WSW,8.1,-,N/A,,Overcast,250,2013-12-07 03:15:00
7:35 PM,26.6,21.2,80,29.99,10.0,WSW,8.1,-,N/A,,Mostly Cloudy,250,2013-12-07 03:35:00
7:55 PM,26.6,21.2,80,29.99,10.0,WSW,9.2,-,N/A,,Mostly Cloudy,240,2013-12-07 03:55:00
8:15 PM,26.6,21.2,80,29.99,10.0,WSW,6.9,-,N/A,,Overcast,240,2013-12-07 04:15:00
8:35 PM,26.6,21.2,80,29.99,10.0,SW,11.5,-,N/A,,Overcast,230,2013-12-07 04:35:00
8:55 PM,26.6,21.2,80,29.99,10.0,WSW,8.1,-,N/A,,Overcast,250,2013-12-07 04:55:00
9:15 PM,26.6,23.0,86,29.99,10.0,WSW,9.2,-,N/A,,Overcast,250,2013-12-07 05:15:00
9:35 PM,26.6,23.0,86,29.99,10.0,WSW,9.2,18.4,N/A,,Overcast,240,2013-12-07 05:35:00
9:55 PM,26.6,23.0,86,29.98,10.0,WSW,9.2,-,N/A,,Overcast,250,2013-12-07 05:55:00
10:15 PM,26.6,23.0,86,29.98,10.0,WSW,10.4,18.4,N/A,,Mostly Cloudy,250,2013-12-07 06:15:00
10:35 PM,26.6,23.0,86,29.99,4.0,WSW,9.2,17.3,N/A,,Overcast,250,2013-12-07 06:35:00
10:55 PM,26.6,23.0,86,29.99,7.0,WSW,6.9,-,N/A,,Overcast,240,2013-12-07 06:55:00
11:15 PM,24.8,21.2,86,29.99,7.0,WSW,9.2,-,N/A,,Overcast,240,2013-12-07 07:15:00
11:35 PM,24.8,21.2,86,29.99,10.0,West,11.5,17.3,N/A,,Overcast,260,2013-12-07 07:35:00
11:55 PM,24.8,21.2,86,29.98,10.0,WSW,10.4,16.1,N/A,,Mostly Cloudy,240,2013-12-07 07:55:00